User: anonymous   Login
Location: Fort Wayne
(41.1310°N, 85.1290°W)
Time: 20:47:51
(UTC-04:00)
Language:

OAO 2 Rocket - Orbit

View from above orbital plane
View from above orbital plane
View from above satellite
View from above satellite

Ground track
Ground track

The orbit data is extracted from the following two-line orbital elements,

1 03598U 68110B   17295.70292605  .00000094  00000-0  26022-4 0  9995
2 03598  34.9948 337.1426 0049223 182.7141 177.3290 14.54333823585041
Epoch (UTC): 22 October 2017 16:52:12
Eccentricity: 0.0049223
inclination: 34.9948°
perigee height: 676 km
apogee height: 746 km
right ascension of ascending node: 337.1426°
argument of perigee: 182.7141°
revolutions per day: 14.54333823
mean anomaly at epoch: 177.3290°
orbit number at epoch: 58504

The dashed part of the orbit path shows where the satellite is in the earth's shadow,  

DLR